www.pogodaiklimat.ru

Погода и климат >> Архив погоды >> Великобритания >> South Uist Range


ПОГОДА в South Uist Range

  • Прогноз погоды в South Uist Range
  • Монитор погоды в South Uist Range
  • Климат города

АРХИВ ПОГОДЫ в South Uist Range

Время (UTC), дата Ветер
(напр.,м/с)
 
Видим.   Явления Облачность Т
(С)
Тd
(С)
f
(%)
Тe
(С)
Тes
(С)
Комфортность P
(гПа)
Po
(гПа)
Тmin
(С)
Tmax
(С)
R
(мм)
R24
(мм)
S
(см)
11 17.04 Ю 16-23
{23}
18 км н/о +12.2 +8.1 76 +8 +8 996.3 995.8
10 17.04 Ю 15-22
{22}
23 км н/о +11.8 +8.3 79 +7 +7 995.6 995.1
12 17.04 Ю 17-22
{24}
14 км н/о +13.5 +8.4 71 +10 +10 996.6 996.1 0.4
13 17.04 Ю 15-23
{24}
25 км н/о +12.7 +9.0 78 +9 +9 997.5 997.0
14 17.04 Ю 15-21
{24}
10 км н/о +13.1 +9.6 79 +9 +9 998.3 997.8
15 17.04 Ю 15-20
{21}
14 км н/о +13.4 +9.5 77 +10 +10 998.7 998.2
17 17.04 Ю 14
{20}
9000 м дым н/о +12.2 +8.1 76 +8 +8 1000.4 999.9
16 17.04 Ю 15
{21}
10 км дым н/о +13.0 +8.5 74 +9 +9 999.6 999.1
18 17.04 Ю 15
{20}
8000 м дым н/о +12.3 +8.2 76 +8 +8 1001.3 1000.9 +13.8 0.4
19 17.04 Ю 14
{19}
6000 м дым н/о +11.4 +7.8 79 +7 +7 1002.6 1002.1
20 17.04 Ю 14
{20}
6000 м дым н/о +11.0 +7.9 81 +6 +6 1003.7 1003.3
21 17.04 Ю 11
{17}
8000 м дым н/о +10.5 +7.7 83 +6 +6 1005.1 1004.6
23 17.04 Ю 10
{15}
7000 м дым н/о +10.0 +7.6 85 +5 +5 1007.3 1006.8
22 17.04 Ю 12
{16}
8000 м дым н/о +10.5 +7.8 83 +6 +6 1006.1 1005.6
00 18.04 Ю 10
{14}
9000 м дым н/о +10.3 +7.6 83 +6 +6 1008.2 1007.7
01 18.04 Ю 10
{14}
10 км дым н/о +10.3 +7.4 82 +6 +6 1008.3 1007.8
02 18.04 Ю 10
{15}
9000 м дым н/о +10.5 +7.8 83 +6 +6 1009.3 1008.8
03 18.04 Ю 11
{15}
8000 м дым н/о +10.3 +8.0 86 +6 +6 1009.4 1008.9
05 18.04 Ю 12
{16}
9000 м в посл. час дождь н/о +10.3 +8.0 86 +6 +6 1010.9 1010.4
04 18.04 Ю 11
{16}
11 км дым н/о +10.4 +8.0 85 +6 +6 1010.0 1009.5
06 18.04 Ю 12
{17}
8000 м дым н/о +10.7 +8.0 83 +6 +6 1011.2 1010.7 +9.9 0.0
07 18.04 Ю 13-19
{19}
10 км в посл. час дождь н/о +10.8 +8.1 83 +6 +6 1011.8 1011.3
08 18.04 Ю 13
{17}
10 км н/о +11.4 +8.4 82 +7 +7 1012.8 1012.3
09 18.04 Ю 12
{18}
17 км н/о +11.5 +8.6 82 +7 +7 1013.3 1012.8
11 18.04 Ю 12-17
{17}
16 км н/о +12.2 +9.2 82 +8 +8 1014.5 1014.0
10 18.04 Ю 12
{18}
14 км н/о +12.1 +9.0 81 +8 +8 1014.1 1013.6
12 18.04 Ю 11
{17}
19 км н/о +12.7 +9.5 81 +9 +9 1015.0 1014.5 0.0
13 18.04 Ю 10
{15}
11 км слаб. ливневой дождь н/о +11.7 +9.4 86 +8 +8 1015.1 1014.6
14 18.04 Ю 12
{16}
35 км в посл. час дождь н/о +11.6 +9.1 85 +7 +7 1014.7 1014.2
15 18.04 Ю 13
{17}
28 км н/о +11.6 +9.0 84 +7 +7 1014.2 1013.8
17 18.04 Ю 14-20
{21}
21 км в посл. час дождь н/о +12.2 +10.1 87 +8 +8 1011.6 1011.1
16 18.04 ЮВ 13
{18}
12 км н/о +11.4 +9.8 90 +7 +7 1013.0 1012.5
18 18.04 Ю 18-23
{23}
12 км н/о +13.1 +9.6 79 +9 +9 1010.1 1009.6 +13.1 0.2
19 18.04 Ю 19-24
{27}
14 км н/о +13.1 +9.2 77 +9 +9 1010.1 1009.6
20 18.04 Ю 19-25
{26}
16 км н/о +13.5 +9.4 76 +9 +9 1009.8 1009.3
21 18.04 Ю 17-24
{27}
13 км н/о +13.6 +9.5 76 +10 +10 1010.2 1009.7
23 18.04 Ю 11
{16}
7000 м слаб. дождь н/о +10.6 +10.1 97 +6 +6 1012.7 1012.2
22 18.04 Ю 14-20
{25}
3700 м дождь н/о +10.6 +9.7 94 +6 +6 1012.3 1011.8
00 19.04 Ю 11
{15}
19 км слаб. морось с дождем н/о +10.7 +9.8 94 +6 +6 1013.5 1013.0 4
01 19.04 Ю 11
{15}
13 км в посл. час дождь н/о +10.8 +9.2 90 +6 +6 1013.8 1013.3
02 19.04 Ю 9
{15}
12 км н/о +10.2 +9.0 92 +6 +6 1014.2 1013.7
03 19.04 Ю 10
{13}
11 км н/о +10.4 +9.1 92 +6 +6 1014.5 1014.0
05 19.04 Ю 7 11 км н/о +9.5 +8.8 95 +5 +5 1014.9 1014.4
04 19.04 Ю 8
{13}
14 км н/о +10.2 +9.2 94 +6 +6 1014.6 1014.1
06 19.04 Ю 8 12 км н/о +9.8 +8.8 93 +6 +6 1015.5 1015.0 +9.2 4
07 19.04 Ю 8 7000 м в посл. час туман н/о +10.0 +8.7 92 +6 +6 1016.1 1015.6
08 19.04 Ю 8 12 км н/о +10.9 +9.3 90 +7 +7 1016.6 1016.1
09 19.04 Ю 9 10 км н/о +11.6 +9.8 89 +8 +8 1017.0 1016.5
11 19.04 ЮЗ 10
{14}
19 км н/о +12.5 +10.1 85 +9 +9 1018.2 1017.7
10 19.04 ЮЗ 10
{13}
11 км н/о +11.5 +9.6 88 +7 +7 1017.7 1017.2
12 19.04 ЮЗ 12
{15}
21 км н/о +12.9 +9.4 79 +9 +9 1018.3 1017.8
13 19.04 ЮЗ 12
{16}
22 км н/о +13.1 +9.8 80 +10 +10 1018.5 1018.0
14 19.04 ЮЗ 12
{15}
17 км н/о +12.7 +9.6 81 +9 +9 1018.9 1018.4
15 19.04 ЮЗ 11
{16}
19 км н/о +12.1 +9.6 85 +8 +8 1019.3 1018.8
17 19.04 ЮЗ 9 11 км н/о +11.0 +8.5 85 +7 +7 1019.6 1019.1
16 19.04 ЮЗ 10
{14}
14 км н/о +11.3 +9.1 86 +7 +7 1019.6 1019.1
18 19.04 ЮЗ 10 8000 м дым н/о +10.5 +8.5 87 +6 +6 1019.7 1019.2 +13.3
19 19.04 ЮЗ 9
{13}
7000 м дым н/о +9.8 +8.3 90 +5 +5 1019.9 1019.4
20 19.04 ЮЗ 9 8000 м дым н/о +9.2 +8.1 93 +5 +5 1020.4 1019.9
21 19.04 ЮЗ 8 6000 м дымка н/о +8.9 +8.1 95 +4 +4 1020.5 1020.1
23 19.04 Ю 7 7000 м дымка н/о +8.7 +8.1 96 +4 +4 1020.3 1019.9
22 19.04 Ю 6 5000 м дымка н/о +8.3 +7.6 95 +4 +4 1020.4 1020.0
00 20.04 Ю 8 7000 м дымка н/о +9.3 +8.5 95 +5 +5 1020.2 1019.7
01 20.04 ЮЗ 7 9000 м дым н/о +9.4 +8.3 93 +5 +5 1020.0 1019.5
02 20.04 ЮЗ 8 8000 м дым н/о +9.3 +8.2 93 +5 +5 1019.6 1019.1
03 20.04 ЮЗ 8 7000 м дымка н/о +9.2 +8.4 95 +5 +5 1019.3 1018.8
05 20.04 ЮЗ 10
{14}
5000 м ливневой дождь н/о +9.0 +8.5 97 +4 +4 1018.3 1017.8
04 20.04 Ю 9 9000 м дым н/о +9.2 +8.2 93 +5 +5 1018.6 1018.1
06 20.04 ЮЗ 11
{14}
7000 м в посл. час дождь н/о +9.1 +8.5 96 +4 +4 1018.2 1017.7 +8.2 3
07 20.04 ЮЗ 10
{13}
6000 м дымка н/о +9.1 +8.6 97 +4 +4 1018.5 1018.0
08 20.04 ЮЗ 10 6000 м дымка н/о +9.8 +9.0 95 +5 +5 1018.5 1018.0
09 20.04 ЮЗ 10 9000 м дым н/о +10.2 +9.2 94 +6 +6 1018.7 1018.3
11 20.04 ЮЗ 10
{14}
8000 м в посл. час дождь н/о +10.8 +9.8 94 +6 +6 1019.1 1018.7
10 20.04 ЮЗ 10
{13}
6000 м дым н/о +10.4 +9.2 92 +6 +6 1018.9 1018.4
12 20.04 ЮЗ 10
{13}
7000 м дым н/о +10.6 +9.0 90 +6 +6 1019.4 1018.9 0.2
13 20.04 ЮЗ 10
{13}
10 км н/о +10.5 +8.3 86 +6 +6 1019.9 1019.4
14 20.04 ЮЗ 9 16 км н/о +10.8 +8.5 86 +7 +7 1020.3 1019.8
15 20.04 ЮЗ 8 16 км н/о +10.8 +8.7 87 +7 +7 1020.6 1020.1
17 20.04 ЮЗ 7 12 км н/о +10.4 +7.9 84 +7 +7 1021.1 1020.6
16 20.04 ЮЗ 8 13 км н/о +10.8 +8.6 86 +7 +7 1020.9 1020.4
18 20.04 ЮЗ 6 11 км дым н/о +10.2 +8.2 87 +7 +7 1021.2 1020.7 +11.4 0.2
19 20.04 ЮЗ 6 12 км н/о +9.4 +7.7 89 +6 +6 1021.2 1020.7
20 20.04 ЮЗ 6 12 км н/о +8.5 +7.3 92 +5 +5 1021.5 1021.0
21 20.04 ЮЗ 6 9000 м дым н/о +8.4 +7.4 93 +4 +4 1021.7 1021.2
23 20.04 Ю 4 9000 м дымка н/о +6.8 +6.1 95 +3 +3 1021.4 1020.9
22 20.04 ЮЗ 6 8000 м дымка н/о +8.2 +7.3 94 +4 +4 1021.5 1021.0
00 21.04 Ю 5 10 км н/о +6.5 +6.0 97 +2 +2 1021.2 1020.7
01 21.04 Ю 5 13 км н/о +6.6 +6.2 97 +2 +2 1021.0 1020.5
02 21.04 Ю 5 14 км н/о +6.2 +5.6 96 +2 +2 1020.4 1019.9
03 21.04 Ю 5 20 км н/о +6.6 +5.9 95 +2 +2 1019.9 1019.4
05 21.04 Ю 6 14 км н/о +7.2 +6.9 98 +3 +3 1018.8 1018.3
04 21.04 Ю 5 24 км н/о +6.4 +5.9 97 +2 +2 1019.2 1018.7
06 21.04 Ю 6 19 км н/о +7.5 +7.0 97 +3 +3 1018.4 1017.9 +5.7
07 21.04 Ю 8 30 км в посл. час туман н/о +8.2 +7.2 93 +3 +3 1018.0 1017.5
08 21.04 Ю 9 17 км н/о +9.0 +7.5 90 +4 +4 1017.5 1017.1
09 21.04 Ю 9
{13}
27 км н/о +9.5 +7.4 87 +5 +5 1017.0 1016.5
11 21.04 Ю 10
{13}
25 км н/о +10.2 +6.9 80 +6 +6 1015.8 1015.3
10 21.04 Ю 10
{13}
16 км н/о +10.0 +6.9 81 +6 +6 1016.3 1015.8
12 21.04 Ю 10 30 км н/о +10.4 +7.3 81 +6 +6 1015.2 1014.7
13 21.04 Ю 10
{13}
24 км н/о +11.4 +7.4 76 +8 +8 1014.5 1014.0
14 21.04 Ю 11
{13}
35 км н/о +11.2 +6.8 74 +7 +7 1014.0 1013.5
15 21.04 Ю 9
{13}
35 км н/о +10.7 +7.1 78 +7 +7 1013.0 1012.6
17 21.04 Ю 6 35 км н/о +10.6 +6.3 75 +7 +7 1011.2 1010.7
16 21.04 Ю 7 25 км н/о +10.4 +6.3 76 +7 +7 1012.3 1011.8
18 21.04 Ю 6 35 км н/о +10.7 +5.8 72 +8 +8 1010.3 1009.8 +11.8
19 21.04 Ю 5 30 км слаб. ливневой дождь н/о +10.1 +6.4 78 +7 +7 1009.6 1009.1
20 21.04 Ю 4 24 км слаб. морось с дождем н/о +8.9 +6.3 84 +6 +6 1008.7 1008.2
21 21.04 Ю 4 30 км слаб. ливневой дождь н/о +9.0 +6.3 83 +6 +6 1007.8 1007.3
23 21.04 Ю 4 24 км слаб. дождь н/о +8.5 +6.5 87 +5 +5 1005.9 1005.5
22 21.04 Ю 4 30 км слаб. дождь н/о +8.7 +6.7 87 +6 +6 1007.3 1006.8
00 22.04 ЮВ 3 23 км слаб. ливневой дождь н/о +8.2 +7.1 93 +5 +5 1005.2 1004.7 1
01 22.04 Ю 6 30 км в посл. час дождь н/о +8.8 +6.6 86 +5 +5 1004.2 1003.7
02 22.04 Ю 6 14 км слаб. дождь н/о +8.5 +6.8 89 +5 +5 1003.3 1002.8
03 22.04 Ю 6 11 км слаб. дождь н/о +8.4 +7.3 93 +4 +4 1002.5 1002.0
05 22.04 Ю 6 3800 м в посл. час дождь н/о +8.2 +7.7 97 +4 +4 1001.0 1000.5
04 22.04 Ю 6 11 км слаб. дождь н/о +8.4 +7.6 95 +4 +4 1001.7 1001.3
06 22.04 ЮЗ 7 11 км слаб. морось с дождем н/о +8.4 +8.1 98 +4 +4 1000.6 1000.1 +8.0 4
07 22.04 Ю 5 7000 м слаб. морось н/о +8.3 +7.7 96 +4 +4 1000.4 1000.0
08 22.04 ЮЗ 6 2000 м н/о +8.4 +8.0 97 +4 +4 1000.1 999.6
09 22.04 ЮЗ 7 13 км слаб. дождь н/о +8.8 +8.4 97 +5 +5 999.9 999.4
11 22.04 ЮЗ 8 14 км в посл. час дождь н/о +9.6 +8.6 93 +5 +5 999.8 999.3
10 22.04 ЮЗ 7 21 км слаб. ливневой дождь н/о +8.8 +8.0 95 +5 +5 999.9 999.5
12 22.04 ЮЗ 8 21 км н/о +9.3 +7.8 90 +5 +5 999.6 999.1 2
13 22.04 ЮЗ 9 16 км в посл. час туман н/о +10.1 +7.7 85 +6 +6 999.5 999.1
14 22.04 ЮЗ 10 15 км н/о +10.6 +7.6 82 +6 +6 999.2 998.7
15 22.04 ЮЗ 10
{13}
19 км н/о +9.8 +7.5 86 +5 +5 998.7 998.2
17 22.04 Ю 8 3700 м дымка н/о +9.4 +8.7 95 +5 +5 997.1 996.7
16 22.04 Ю 10
{14}
27 км н/о +9.9 +7.3 84 +5 +5 997.8 997.3
18 22.04 ЮЗ 9 14 км в посл. час дождь н/о +9.4 +8.7 95 +5 +5 997.0 996.5 +10.7 2
19 22.04 ЮЗ 7 13 км н/о +9.0 +7.7 92 +5 +5 997.4 996.9
20 22.04 ЮЗ 7 13 км дым н/о +8.9 +7.8 93 +5 +5 997.6 997.1
21 22.04 ЮЗ 7 14 км в посл. час дождь н/о +8.5 +7.9 96 +4 +4 997.9 997.4
23 22.04 З 8 12 км н/о +8.9 +7.7 92 +4 +4 999.0 998.5
22 22.04 З 8 18 км н/о +8.5 +7.7 95 +4 +4 998.4 997.9
00 23.04 З 8 11 км в посл. час дождь н/о +8.7 +8.1 96 +4 +4 999.7 999.2 1
01 23.04 З 8 10 км в посл. час дождь н/о +8.8 +7.8 93 +4 +4 1000.3 999.8
02 23.04 З 8 15 км в посл. час дождь н/о +8.7 +7.9 95 +4 +4 1000.9 1000.5
03 23.04 СЗ 7 13 км в посл. час дождь н/о +8.2 +7.7 97 +4 +4 1002.0 1001.6
05 23.04 З 7 20 км в посл. час морось н/о +8.4 +7.0 91 +4 +4 1003.1 1002.6
04 23.04 З 7 12 км н/о +8.6 +7.3 92 +4 +4 1002.8 1002.3
06 23.04 З 7 8000 м н/о +8.3 +6.3 87 +4 +4 1003.6 1003.1 +8.1 3
07 23.04 З 8 28 км н/о +8.8 +7.1 89 +4 +4 1004.0 1003.5
08 23.04 З 9
{13}
25 км н/о +8.7 +6.7 87 +4 +4 1004.0 1003.6
09 23.04 З 8 25 км н/о +9.0 +7.0 87 +4 +4 1004.2 1003.8
11 23.04 ЮЗ 7
{13}
14 км н/о +9.2 +7.6 90 +5 +5 1004.2 1003.8
10 23.04 ЮЗ 8 19 км н/о +9.5 +7.1 85 +5 +5 1004.3 1003.8
12 23.04 З 7 12 км в посл. час дождь н/о +8.9 +7.1 88 +5 +5 1004.0 1003.5 0.0
13 23.04 ЮЗ 9
{14}
20 км слаб. ливневой дождь н/о +8.5 +7.0 90 +4 +4 1003.4 1002.9
14 23.04 ЮЗ 8 13 км в посл. час дождь н/о +8.7 +6.6 87 +4 +4 1002.4 1001.9
15 23.04 Ю 6 9000 м слаб. ливневой дождь н/о +8.0 +6.5 90 +4 +4 1001.8 1001.3
17 23.04 Ю 5 6000 м слаб. ливневой дождь н/о +8.5 +7.7 95 +5 +5 999.4 999.0
16 23.04 Ю 5 3400 м дождь н/о +8.1 +7.3 95 +4 +4 1000.6 1000.1
18 23.04 ЮЗ 2 35 км в посл. час дождь н/о +9.2 +8.0 92 +8 +8 999.0 998.5 +9.7 3
19 23.04 З 4 40 км н/о +8.7 +8.0 95 +5 +5 999.5 999.0
20 23.04 З 8 8000 м дымка н/о +8.5 +8.2 98 +4 +4 1000.2 999.8
21 23.04 З 10
{16}
19 км н/о +8.5 +6.0 84 +3 +3 1001.2 1000.8
23 23.04 З 11
{14}
11 км н/о +8.6 +5.6 81 +3 +3 1002.0 1001.5
22 23.04 З 10
{15}
11 км н/о +8.5 +5.9 84 +3 +3 1001.9 1001.5
00 24.04 З 10
{15}
12 км н/о +8.4 +5.3 81 +3 +3 1002.1 1001.6
01 24.04 З 9
{15}
15 км в посл. час дождь н/о +8.1 +5.6 84 +3 +3 1002.4 1001.9
02 24.04 З 9
{15}
9000 м дым н/о +8.3 +5.7 84 +3 +3 1002.5 1002.0
03 24.04 З 9 13 км в посл. час дождь н/о +8.1 +5.6 84 +3 +3 1002.7 1002.2
05 24.04 З 9
{16}
45 км н/о +7.2 +3.9 80 +2 +2 1002.7 1002.2
04 24.04 З 9
{16}
30 км в посл. час дождь н/о +7.2 +4.4 82 +2 +2 1002.7 1002.2
06 24.04 З 8
{13}
15 км н/о +7.8 +4.9 82 +3 +3 1003.1 1002.7 +6.9 0.4
07 24.04 З 7
{13}
19 км н/о +8.7 +5.1 78 +5 +5 1003.7 1003.2
08 24.04 З 6 11 км в посл. час дождь н/о +9.3 +6.3 82 +6 +6 1004.0 1003.5
09 24.04 З 7 6000 м ливневой дождь н/о +8.3 +6.2 87 +4 +4 1004.2 1003.7

 

Местоположение метеостанции South Uist Range (Великобритания): широта 57.33 долгота -7.37 высота над уровнем моря 4 м.

В архиве по умолчанию представлена погода в South Uist Range за последнюю неделю. Архивные данные за месяц целиком и за предыдущие месяцы, начиная с января 2011 года, Вы можете получить, выбрав интересующий диапазон дат из раскрывающегося списка и нажав кнопку "Ввод!".


*Определитесь, кто Вы:
робот инопланетянин человек

Внимание! Время в таблицах - всемирное. Для получения местного времени необходимо прибавить поправку, которая в South Uist Range равна 0 ч.

Смотрите также архив погоды в соседних городах и на ближайших метеорологических станциях:

Погода в Skye (Великобритания) (95 км)
Погода в Tiree (Великобритания) (97 км)
Погода в Bealach Na Ba (Великобритания) (102 км)
Погода в Stornoway (Великобритания) (117 км)
Погода в Aultbea (Великобритания) (120 км)
Погода в Loch Glascarnoch (Великобритания) (155 км)
Погода в Aonach Moor (Великобритания) (156 км)
Погода в Tulloch Bridge (Великобритания) (169 км)
Погода в Port Ellen (Великобритания) (196 км)
Погода в Altnaharra (Великобритания) (204 км)

Пояснения к столбцам:

Ветер - указаны скорость ветра в м/с - средняя за 10 мин, порывы в срок и между сроками (в фигурных скобках) и направление, откуда дует ветер: С - северный, СВ - северо-восточный, В - восточный, ЮВ - юго-восточный, Ю - южный, ЮЗ - юго-западный, З - западный, СЗ - северо-западный.
Видимость - горизонтальная дальность видимости в метрах или километрах. При видимости от 1 до 10 км при отсутствии осадков обычно наблюдается дымка, при ухудшении видимости до 1 км и менее - туман. В сухую погоду видимость может ухудшаться дымом, пылью или мглою.
Явления - указаны атмосферные явления, наблюдавшиеся в срок или в последний час перед сроком; фигурными скобками обозначены явления, наблюдавшиеся между сроками (за 1-3 часа до срока); квадратными скобками обозначены град или гололедные отложения с указанием их диаметра в мм.
Облачность - указаны через наклонную черту общая и нижняя облачность в баллах и высота нижней границы облаков в метрах; квадратными скобками обозначены формы облаков: Ci - перистые, Cs - перисто-слоистые, Cc - перисто-кучевые, Ac - высококучевые, As - высокослоистые, Sc - слоисто-кучевые, Ns - слоисто-дождевые, Cu - кучевые, Cb - кучево-дождевые. Подробнее классификацию облаков см. в Атласе облаков (PDF).
T - Температура воздуха - температура, измеренная на высоте 2 м над землей.
Td - Температура точки росы - температура, при понижении до которой содержащийся в воздухе водяной пар достигнет насыщения.
f - Относительная влажность воздуха - влажноcть воздуха, измеренная на высоте 2 м над землей.
Te - Эффективная температура - температура, которую ощущает одетый по сезону человек в тени. Характеристика душности погоды. При расчете учитывается влияние влажности воздуха и скорости ветра на теплоощущения человека.
Tes - Эффективная температура на солнце - температура, которую ощущает человек, с поправкой на солнечный нагрев. Характеристика знойности погоды. Зависит от высоты солнца над горизонтом, облачности и скорости ветра. Ночью, в пасмурную погоду, а также при ветре 12 м/с и более поправка равна нулю.
P - Атмосферное давление - приведенное к уровню моря атмосферное давление.
Po - Атмосферное давление - измеренное на уровне метеостанции атмосферное давление.
Tmin - Минимальная температура - минимум температуры воздуха на высоте 2 м над землей.
Tmax - Максимальная температура - максимум температуры воздуха на высоте 2 м над землей.
R - Количество осадков - Количество выпавших осадков за период времени, мм. При наведении курсора мыши на число - период времени, за который выпало указанное количество осадков.
R24 - Количество осадков - Количество выпавших осадков за 24 часа, мм.
S - Снежный покров - Высота снежного покрова, см. При наведении курсора мыши на число - состояние снежного покрова и степень покрытия местности в баллах.